TimeCST,TemperatureF,Dew PointF,Humidity,Sea Level PressureIn,VisibilityMPH,Wind Direction,Wind SpeedMPH,Gust SpeedMPH,PrecipitationIn,Events,Conditions,WindDirDegrees,DateUTC
12:15 AM,10.0,2.3,71,30.44,10.0,North,10.4,-,N/A,,Clear,360,2014-01-21 06:15:00
12:35 AM,9.1,1.9,73,30.44,10.0,NNE,8.1,-,N/A,,Clear,20,2014-01-21 06:35:00
12:55 AM,8.4,1.4,73,30.44,10.0,NNE,6.9,-,N/A,,Clear,20,2014-01-21 06:55:00
1:15 AM,7.7,1.2,75,30.44,10.0,North,8.1,-,N/A,,Clear,10,2014-01-21 07:15:00
1:35 AM,7.0,0.5,75,30.44,10.0,NNE,6.9,-,N/A,,Clear,30,2014-01-21 07:35:00
1:55 AM,5.7,-0.4,76,30.44,10.0,NNE,4.6,-,N/A,,Clear,20,2014-01-21 07:55:00
2:15 AM,5.9,0.1,77,30.43,10.0,Calm,Calm,-,N/A,,Clear,0,2014-01-21 08:15:00
2:35 AM,5.9,-0.2,76,30.43,10.0,West,3.5,-,N/A,,Clear,270,2014-01-21 08:35:00
2:55 AM,4.8,-0.9,77,30.44,10.0,Calm,Calm,-,N/A,,Clear,0,2014-01-21 08:55:00
3:15 AM,5.0,-0.6,78,30.43,10.0,NE,5.8,-,N/A,,Clear,40,2014-01-21 09:15:00
3:35 AM,4.3,-0.8,80,30.43,10.0,Calm,Calm,-,N/A,,Clear,0,2014-01-21 09:35:00
3:55 AM,3.7,-1.7,78,30.41,10.0,East,3.5,-,N/A,,Clear,90,2014-01-21 09:55:00
4:15 AM,3.0,-2.0,80,30.41,10.0,Calm,Calm,-,N/A,,Clear,0,2014-01-21 10:15:00
4:35 AM,3.9,-1.3,79,30.40,10.0,SW,3.5,-,N/A,,Clear,230,2014-01-21 10:35:00
4:55 AM,2.1,-3.1,79,30.40,10.0,Calm,Calm,-,N/A,,Clear,0,2014-01-21 10:55:00
5:15 AM,3.2,-1.3,82,30.41,10.0,WSW,3.5,-,N/A,,Clear,250,2014-01-21 11:15:00
5:35 AM,4.3,-0.6,80,30.39,10.0,SW,3.5,-,N/A,,Clear,220,2014-01-21 11:35:00
5:55 AM,3.0,-1.8,80,30.38,10.0,South,3.5,-,N/A,,Clear,190,2014-01-21 11:55:00
6:15 AM,2.7,-1.8,81,30.37,10.0,South,4.6,-,N/A,,Clear,190,2014-01-21 12:15:00
6:35 AM,3.6,-1.3,80,30.34,10.0,South,5.8,-,N/A,,Clear,180,2014-01-21 12:35:00
6:55 AM,3.9,-0.9,80,30.33,10.0,SSE,4.6,-,N/A,,Clear,160,2014-01-21 12:55:00
7:15 AM,4.1,-0.8,80,30.32,10.0,South,4.6,-,N/A,,Clear,170,2014-01-21 13:15:00
7:35 AM,4.3,-0.8,80,30.32,10.0,SSE,4.6,-,N/A,,Clear,160,2014-01-21 13:35:00
7:55 AM,3.9,-1.3,79,30.31,10.0,SSE,5.8,-,N/A,,Clear,160,2014-01-21 13:55:00
8:15 AM,5.0,-0.2,79,30.30,10.0,South,5.8,-,N/A,,Clear,190,2014-01-21 14:15:00
8:35 AM,6.3,0.5,77,30.29,10.0,South,5.8,-,N/A,,Clear,180,2014-01-21 14:35:00
8:55 AM,7.5,0.7,74,30.27,10.0,South,9.2,-,N/A,,Clear,190,2014-01-21 14:55:00
9:15 AM,9.0,1.2,71,30.25,10.0,South,11.5,-,N/A,,Clear,190,2014-01-21 15:15:00
9:35 AM,10.9,1.2,65,30.26,10.0,SSW,11.5,-,N/A,,Clear,200,2014-01-21 15:35:00
9:55 AM,13.1,1.8,61,30.26,10.0,South,10.4,-,N/A,,Clear,190,2014-01-21 15:55:00
10:15 AM,14.5,2.7,59,30.24,10.0,South,10.4,-,N/A,,Clear,190,2014-01-21 16:15:00
10:35 AM,16.2,3.4,57,30.23,10.0,South,12.7,-,N/A,,Clear,190,2014-01-21 16:35:00
10:55 AM,17.2,4.1,56,30.23,10.0,South,13.8,-,N/A,,Clear,190,2014-01-21 16:55:00
11:15 AM,18.1,5.0,57,30.20,10.0,South,12.7,-,N/A,,Clear,190,2014-01-21 17:15:00
11:35 AM,21.0,5.9,52,30.18,10.0,SSW,15.0,20.7,N/A,,Clear,200,2014-01-21 17:35:00
11:55 AM,23.4,7.2,50,30.15,10.0,South,15.0,-,N/A,,Clear,190,2014-01-21 17:55:00
12:15 PM,24.6,7.7,49,30.14,10.0,South,15.0,-,N/A,,Clear,190,2014-01-21 18:15:00
12:35 PM,24.8,8.6,50,30.12,10.0,SSW,17.3,23.0,N/A,,Clear,210,2014-01-21 18:35:00
12:55 PM,27.7,9.7,47,30.09,10.0,SSW,18.4,24.2,N/A,,Clear,210,2014-01-21 18:55:00
1:15 PM,29.3,10.4,45,30.07,10.0,SSW,17.3,26.5,N/A,,Clear,210,2014-01-21 19:15:00
1:35 PM,31.8,11.8,44,30.06,10.0,SW,13.8,19.6,N/A,,Clear,220,2014-01-21 19:35:00
1:55 PM,33.6,13.3,43,30.04,10.0,SSW,15.0,20.7,N/A,,Clear,210,2014-01-21 19:55:00
2:15 PM,36.9,13.6,39,30.02,10.0,SW,15.0,19.6,N/A,,Clear,230,2014-01-21 20:15:00
2:35 PM,38.5,14.0,37,30.00,10.0,SW,15.0,18.4,N/A,,Clear,230,2014-01-21 20:35:00
2:55 PM,40.1,14.4,35,29.99,10.0,SW,12.7,-,N/A,,Clear,220,2014-01-21 20:55:00
3:15 PM,42.3,14.9,33,29.99,10.0,WSW,9.2,-,N/A,,Clear,240,2014-01-21 21:15:00
3:35 PM,43.5,15.3,32,29.98,10.0,SW,9.2,-,N/A,,Clear,230,2014-01-21 21:35:00
3:50 PM,45.0,15.8,31,29.98,10.0,WSW,9.2,-,N/A,,Clear,250,2014-01-21 21:50:00
4:15 PM,46.6,16.3,30,29.97,10.0,WSW,5.8,-,N/A,,Clear,240,2014-01-21 22:15:00
4:35 PM,47.1,16.5,29,29.97,10.0,SW,8.1,-,N/A,,Scattered Clouds,230,2014-01-21 22:35:00
4:55 PM,46.8,16.7,30,29.97,10.0,SW,8.1,-,N/A,,Mostly Cloudy,230,2014-01-21 22:55:00
5:15 PM,46.2,16.5,31,29.97,10.0,West,9.2,-,N/A,,Mostly Cloudy,260,2014-01-21 23:15:00
5:35 PM,49.1,18.1,29,29.98,10.0,NW,15.0,25.3,N/A,,Mostly Cloudy,320,2014-01-21 23:35:00
5:55 PM,50.5,19.8,30,29.99,10.0,NW,17.3,24.2,N/A,,Mostly Cloudy,320,2014-01-21 23:55:00
6:15 PM,51.1,20.1,30,30.00,10.0,NNW,25.3,35.7,N/A,,Overcast,330,2014-01-22 00:15:00
6:35 PM,48.9,19.9,32,30.01,10.0,NW,16.1,25.3,N/A,,Scattered Clouds,320,2014-01-22 00:35:00
6:55 PM,45.5,19.4,35,30.02,10.0,North,12.7,-,N/A,,Clear,350,2014-01-22 00:55:00
7:15 PM,45.3,22.5,40,30.03,10.0,NNW,19.6,26.5,N/A,,Clear,330,2014-01-22 01:15:00
7:35 PM,43.5,22.6,44,30.04,10.0,NNW,17.3,25.3,N/A,,Clear,330,2014-01-22 01:35:00
7:55 PM,41.0,22.5,48,30.05,10.0,NNW,11.5,-,N/A,,Clear,340,2014-01-22 01:55:00
8:20 PM,40.1,22.3,49,30.06,10.0,NNW,11.5,-,N/A,,Mostly Cloudy,340,2014-01-22 02:20:00
8:30 PM,39.7,22.3,50,30.06,10.0,North,10.4,-,N/A,,Overcast,350,2014-01-22 02:30:00
8:55 PM,38.5,22.1,52,30.07,10.0,North,6.9,-,N/A,,Overcast,360,2014-01-22 02:55:00
9:15 PM,37.8,22.1,53,30.07,10.0,North,5.8,-,N/A,,Overcast,360,2014-01-22 03:15:00
9:30 PM,37.4,22.3,54,30.07,10.0,North,5.8,-,N/A,,Overcast,360,2014-01-22 03:30:00
9:55 PM,36.1,22.5,58,30.08,10.0,North,6.9,-,N/A,,Overcast,350,2014-01-22 03:55:00
10:15 PM,36.0,22.5,58,30.09,10.0,NNW,6.9,-,N/A,,Overcast,330,2014-01-22 04:15:00
10:35 PM,36.1,23.0,59,30.09,10.0,North,10.4,-,N/A,,Mostly Cloudy,350,2014-01-22 04:35:00
10:55 PM,34.0,22.6,63,30.09,10.0,North,8.1,-,N/A,,Scattered Clouds,350,2014-01-22 04:55:00
11:15 PM,31.5,21.4,66,30.10,10.0,NNW,5.8,-,N/A,,Clear,340,2014-01-22 05:15:00
11:35 PM,29.3,20.7,70,30.10,10.0,North,8.1,-,N/A,,Clear,350,2014-01-22 05:35:00
11:55 PM,33.8,23.4,66,30.10,10.0,North,9.2,-,N/A,,Clear,350,2014-01-22 05:55:00